Tracking 19224 objects as of 22-Jul-2018
HD Live streaming from Space Station
objects crossing your sky now

UNSW-ECO

Track UNSW-ECO now!
10-day predictions
UNSW-ECO is classified as:


NORAD ID: 42723
Int'l Code: 1998-067MC
Perigee: 342.6 km
Apogee: 350.0 km
Inclination: 51.6 °
Period: 91.3 minutes
Semi major axis: 6717 km
RCS: Unknown
Launch date: November 20, 1998
Source: United States (US)
Launch site: TYURATAM MISSILE AND SPACE COMPLEX (TTMTR)
Uplink (MHz):
Downlink (MHz): 436.525/2400.500
Beacon (MHz):
Mode: 4800bps GMSK
Call sign: ON02AU
Status: Active

aabbcc
Your satellite tracking list
Your tracking list is empty




NASA's NSSDC Master Catalog

Two Line Element Set (TLE):
1 42723U 98067MC  18203.33759426  .00048990  00000-0  29843-3 0  9990
2 42723  51.6368 172.2189 0005496  26.8655 333.2629 15.76912918 66206
Source of the keplerian elements: AFSPC